User: anonymous   Login
Location: Unspecified
(0.0000°N, 0.0000°E)
Time: 00:23:19
(UTC+02:00)
Language:

Cosmos 1295 Rocket - Orbit

View from above orbital plane
View from above orbital plane
View from above satellite
View from above satellite

Ground track
Ground track

The orbit data is extracted from the following two-line orbital elements,

1 12682U 81077B   15087.53948707  .00000200  00000-0  18126-3 0  9999
2 12682 082.9137 263.1637 0035340 100.2566 318.5995 13.78489289691043
Epoch (UTC): 28 March 2015 12:56:51
Eccentricity: 0.0035340
inclination: 82.9137°
perigee height: 943 km
apogee height: 995 km
right ascension of ascending node: 263.1637°
argument of perigee: 100.2566°
revolutions per day: 13.78489289
mean anomaly at epoch: 318.5995°
orbit number at epoch: 69104

The dashed part of the orbit path shows where the satellite is in the earth's shadow,  

DLR